COSMOS 2251 DEB, 38220

Orbit data source: Space-Track

COSMOS 2251 DEB, 38220 is space debris in LEO originally from a launch on Wed, 16 Jun 1993 UTC launched from the Plesetsk Missile And Space Complex (PKMTR). The debris from Iridium 33, an American commercial communications satellite, has been tracked extensively since its accidental collision with the defunct Russian satellite Cosmos 2251 in 2009. This event, occurring at high speed in low Earth orbit (LEO), generated thousands of pieces of space debris, significantly increasing the risk of further collisions. The Iridium 33 debris cloud has impacted space traffic management and orbital debris mitigation strategies, making it a subject of ongoing study in space situational awareness.

Loading next visibility...
Identifier
38220, 1993-036BTL
Orbit
LEO
Country
Flag of CISCIS
Related business
Manufacturer
Unknown
Mission
Spacecraft
Bus & Motor
Unknown
Mass
Unknown
Launch date (UTC)
1993-06-16 (33 years ago)
Launch vehicle
Unknown
Launch site
Plesetsk Missile And Space Complex (PKMTR)
Object type
Payload
Rocket body
Debris
Shape & HBR
Unknown shape, 0.1 m
Radar Cross Section
Small (<0.1 m²)

Expand to show TLE details & history
Last TLE update: 1 day ago

TLE from 1 day ago
0 COSMOS 2251 DEB
1 38220U 93036BTL 26237.34368896  .00036370  00000-0  21949-2 0  9999
2 38220  74.0041 265.9737 0005023 306.8960  53.1771 15.10549189752094
Epoch: 2026-08-25T08:14Z
TLE epoch observation values (Epoch: 2026-08-25T08:14:54.726Z)
Latitude
-0.00004°
Longitude
168.63327°
Altitude
535.143 km
Speed
7.596 km/s
True Right ascension
17h 43m 53s
True Declination
0° 00' 00"
Sunlit
Object was in daylight at epoch
Visualization orbit readout
Latitude
Unknown
Longitude
Unknown
Altitude
Unknown
Speed
Unknown
Apparent Right ascension
Unknown
Apparent Declination
Unknown
Sunlit
N/A
Visualization observer readout
Local Sidereal Time
08:21:32
Azimuth
Unknown
Elevation
Unknown
Doppler factor
Unknown
Orbital elements
Apogee altitude
535.54 km
Perigee altitude
528.598 km
Semi-major axis
6,910.206 km
Eccentricity
0.0005
Inclination
74.0041°
RAAN
265.9737°
Arg. of periapsis
306.896°
True anomaly
53.22319°
Mean anomaly
53.1771°
Eccentric anomaly
53.20014°
Mean motion
3.77839 °/min
Orbital period
95.28 mins
BSTAR
0.0021949
Loading maneuver chart data...
Computing Atmospheric mass density...

Documentation

Showing up to 5 results
|